Data No.,UTC Date,UTC Time,Latitude,Longitude,Course(deg),Temp(degC),Sal(psu)
9070,2014/1/1,10:00:00,17-21.5000N,119-59.9900E,196,28.047,33.0554
9071,2014/1/1,10:01:00,17-21.3200N,119-59.9300E,197,28.054,33.0567
9072,2014/1/1,10:02:00,17-21.1200N,119-59.8600E,197,28.062,33.0596
9073,2014/1/1,10:03:00,17-20.9300N,119-59.8000E,197,28.066,33.0616
9074,2014/1/1,10:04:00,17-20.7400N,119-59.7300E,197,28.067,33.063
9075,2014/1/1,10:05:00,17-20.5500N,119-59.6700E,198,28.067,33.063
9076,2014/1/1,10:06:00,17-20.3600N,119-59.6100E,197,28.068,33.0616
9077,2014/1/1,10:07:00,17-20.1700N,119-59.5400E,198,28.07,33.0595
9078,2014/1/1,10:08:00,17-19.9800N,119-59.4800E,198,28.076,33.0587
9079,2014/1/1,10:09:00,17-19.7700N,119-59.4100E,196,28.079,33.059
9080,2014/1/1,10:10:00,17-19.5900N,119-59.3500E,197,28.084,33.0601
9081,2014/1/1,10:11:00,17-19.3900N,119-59.2800E,197,28.09,33.062
9082,2014/1/1,10:12:00,17-19.2000N,119-59.2200E,196,28.096,33.0638
9083,2014/1/1,10:13:00,17-19.0000N,119-59.1500E,197,28.103,33.0655
9084,2014/1/1,10:14:00,17-18.8100N,119-59.0900E,197,28.11,33.0671
9085,2014/1/1,10:15:00,17-18.5900N,119-59.0100E,197,28.116,33.0696
9086,2014/1/1,10:16:00,17-18.4000N,119-58.9500E,197,28.121,33.0721
9087,2014/1/1,10:17:00,17-18.2300N,119-58.8900E,198,28.128,33.0743
9088,2014/1/1,10:18:00,17-18.0400N,119-58.8200E,198,28.135,33.077
9089,2014/1/1,10:19:00,17-17.8400N,119-58.7600E,197,28.139,33.0788
9090,2014/1/1,10:20:00,17-17.6500N,119-58.6900E,197,28.14,33.0804
9091,2014/1/1,10:21:00,17-17.4500N,119-58.6300E,197,28.14,33.081
9092,2014/1/1,10:22:00,17-17.2600N,119-58.5600E,196,28.138,33.0808
9093,2014/1/1,10:23:00,17-17.0300N,119-58.4900E,196,28.134,33.0792
9094,2014/1/1,10:24:00,17-16.8600N,119-58.4400E,196,28.129,33.0765
9095,2014/1/1,10:25:00,17-16.6600N,119-58.3700E,196,28.121,33.0728
9096,2014/1/1,10:26:00,17-16.4700N,119-58.3100E,197,28.112,33.0688
9097,2014/1/1,10:27:00,17-16.2700N,119-58.2500E,195,28.105,33.0647
9098,2014/1/1,10:28:00,17-16.0700N,119-58.1900E,195,28.1,33.0617
9099,2014/1/1,10:29:00,17-15.8700N,119-58.1300E,195,28.098,33.0596
9100,2014/1/1,10:30:00,17-15.6700N,119-58.0700E,194,28.1,33.0587
9101,2014/1/1,10:31:00,17-15.4800N,119-58.0200E,194,28.101,33.0585
9102,2014/1/1,10:32:00,17-15.2800N,119-57.9600E,195,28.1,33.0602
9103,2014/1/1,10:33:00,17-15.0800N,119-57.9000E,195,28.098,33.0621
9104,2014/1/1,10:34:00,17-14.8900N,119-57.8500E,195,28.097,33.0645
9105,2014/1/1,10:35:00,17-14.6900N,119-57.7900E,195,28.096,33.0662
9106,2014/1/1,10:36:00,17-14.4900N,119-57.7300E,195,28.095,33.0675
9107,2014/1/1,10:37:00,17-14.2900N,119-57.6700E,195,28.091,33.0686
9108,2014/1/1,10:38:00,17-14.1000N,119-57.6200E,195,28.084,33.0692
9109,2014/1/1,10:39:00,17-13.9000N,119-57.5600E,195,28.078,33.0685
9110,2014/1/1,10:40:00,17-13.6800N,119-57.4900E,195,28.07,33.0685
9111,2014/1/1,10:41:00,17-13.4900N,119-57.4400E,194,28.061,33.0665
9112,2014/1/1,10:42:00,17-13.2900N,119-57.3900E,194,28.054,33.0654
9113,2014/1/1,10:43:00,17-13.1000N,119-57.3300E,195,28.053,33.0639
9114,2014/1/1,10:44:00,17-12.9100N,119-57.2700E,195,28.048,33.063
9115,2014/1/1,10:45:00,17-12.7500N,119-57.2200E,195,28.048,33.0623
9116,2014/1/1,10:46:00,17-12.5500N,119-57.1600E,195,28.043,33.062
9117,2014/1/1,10:47:00,17-12.3700N,119-57.1200E,194,28.036,33.0617
9118,2014/1/1,10:48:00,17-12.1800N,119-57.0600E,194,28.026,33.06
9119,2014/1/1,10:49:00,17-11.9700N,119-57.0000E,195,28.024,33.0587
9120,2014/1/1,10:50:00,17-11.7600N,119-56.9300E,194,28.017,33.0575
9121,2014/1/1,10:51:00,17-11.5600N,119-56.8800E,194,28.01,33.057
9122,2014/1/1,10:52:00,17-11.3700N,119-56.8300E,194,28.005,33.0557
9123,2014/1/1,10:53:00,17-11.1800N,119-56.7700E,194,28,33.0556
9124,2014/1/1,10:54:00,17-10.9900N,119-56.7200E,194,27.995,33.0551
9125,2014/1/1,10:55:00,17-10.7900N,119-56.6600E,194,27.997,33.0544
9126,2014/1/1,10:56:00,17-10.6000N,119-56.6000E,194,27.984,33.054
9127,2014/1/1,10:57:00,17-10.4100N,119-56.5500E,195,27.978,33.0536
9128,2014/1/1,10:58:00,17-10.2100N,119-56.4900E,195,27.979,33.0522
9129,2014/1/1,10:59:00,17-10.0200N,119-56.4400E,195,27.973,33.0517
9130,2014/1/1,11:00:00,17-09.8300N,119-56.3800E,195,27.966,33.0517
9131,2014/1/1,11:01:00,17-09.6400N,119-56.3200E,196,27.959,33.0519
9132,2014/1/1,11:02:00,17-09.4500N,119-56.2700E,194,27.951,33.0511
9133,2014/1/1,11:03:00,17-09.2600N,119-56.2100E,195,27.944,33.0512
9134,2014/1/1,11:04:00,17-09.0600N,119-56.1600E,194,27.94,33.0504
9135,2014/1/1,11:05:00,17-08.8700N,119-56.1000E,195,27.937,33.0497
9136,2014/1/1,11:06:00,17-08.6800N,119-56.0400E,195,27.934,33.049
9137,2014/1/1,11:07:00,17-08.5000N,119-55.9900E,195,27.931,33.0481
9138,2014/1/1,11:08:00,17-08.3200N,119-55.9400E,195,27.925,33.0476
9139,2014/1/1,11:09:00,17-08.1300N,119-55.8800E,196,27.91,33.0467
9140,2014/1/1,11:10:00,17-07.9400N,119-55.8300E,195,27.901,33.0451
9141,2014/1/1,11:11:00,17-07.7500N,119-55.7700E,196,27.893,33.0419
9142,2014/1/1,11:12:00,17-07.5600N,119-55.7100E,195,27.881,33.0398
9143,2014/1/1,11:13:00,17-07.3700N,119-55.6500E,197,27.864,33.038
9144,2014/1/1,11:14:00,17-07.1800N,119-55.5900E,196,27.858,33.034
9145,2014/1/1,11:15:00,17-06.9900N,119-55.5300E,197,27.842,33.0305
9146,2014/1/1,11:16:00,17-06.8000N,119-55.4700E,195,27.832,33.0273
9147,2014/1/1,11:17:00,17-06.6100N,119-55.4100E,197,27.818,33.0237
9148,2014/1/1,11:18:00,17-06.4200N,119-55.3400E,197,27.798,33.0194
9149,2014/1/1,11:19:00,17-06.2300N,119-55.2800E,198,27.78,33.015
9150,2014/1/1,11:20:00,17-06.0400N,119-55.2100E,197,27.767,33.0115
9151,2014/1/1,11:21:00,17-05.8500N,119-55.1500E,198,27.759,33.0089
9152,2014/1/1,11:22:00,17-05.6600N,119-55.0800E,198,27.75,33.0075
9153,2014/1/1,11:23:00,17-05.4600N,119-55.0100E,198,27.744,33.0069
9154,2014/1/1,11:24:00,17-05.2700N,119-54.9300E,199,27.741,33.0075
9155,2014/1/1,11:25:00,17-05.1000N,119-54.8800E,198,27.735,33.0088
9156,2014/1/1,11:26:00,17-04.9100N,119-54.8100E,197,27.73,33.01
9157,2014/1/1,11:27:00,17-04.7200N,119-54.7500E,198,27.723,33.0113
9158,2014/1/1,11:28:00,17-04.5300N,119-54.6800E,198,27.72,33.0123
9159,2014/1/1,11:29:00,17-04.3500N,119-54.6100E,199,27.715,33.0122
9160,2014/1/1,11:30:00,17-04.1600N,119-54.5500E,197,27.712,33.0127
9161,2014/1/1,11:31:00,17-03.9700N,119-54.4800E,197,27.705,33.013
9162,2014/1/1,11:32:00,17-03.7800N,119-54.4200E,197,27.704,33.0134
9163,2014/1/1,11:33:00,17-03.6000N,119-54.3500E,198,27.705,33.0136
9164,2014/1/1,11:34:00,17-03.4100N,119-54.2900E,198,27.707,33.0142
9165,2014/1/1,11:35:00,17-03.2200N,119-54.2200E,198,27.708,33.014
9166,2014/1/1,11:36:00,17-03.0300N,119-54.1600E,197,27.704,33.0137
9167,2014/1/1,11:37:00,17-02.8500N,119-54.0900E,197,27.698,33.0126
9168,2014/1/1,11:38:00,17-02.6600N,119-54.0300E,198,27.686,33.0114
9169,2014/1/1,11:39:00,17-02.4600N,119-53.9600E,198,27.682,33.0104
9170,2014/1/1,11:40:00,17-02.2800N,119-53.9000E,197,27.677,33.0102
9171,2014/1/1,11:41:00,17-02.0900N,119-53.8400E,198,27.669,33.0092
9172,2014/1/1,11:42:00,17-01.9000N,119-53.7700E,199,27.661,33.006
9173,2014/1/1,11:43:00,17-01.6800N,119-53.6900E,197,27.66,33.0042
9174,2014/1/1,11:44:00,17-01.4900N,119-53.6300E,196,27.662,33.0017
9175,2014/1/1,11:45:00,17-01.3000N,119-53.5600E,198,27.663,32.9992
9176,2014/1/1,11:46:00,17-01.1300N,119-53.5100E,196,27.665,32.9974
9177,2014/1/1,11:47:00,17-00.9500N,119-53.4500E,196,27.664,32.9948
9178,2014/1/1,11:48:00,17-00.7500N,119-53.3900E,195,27.66,32.9938
9179,2014/1/1,11:49:00,17-00.5600N,119-53.3300E,197,27.66,32.992
9180,2014/1/1,11:50:00,17-00.3700N,119-53.2700E,196,27.666,32.9924
9181,2014/1/1,11:51:00,17-00.1800N,119-53.2200E,195,27.673,32.993
9182,2014/1/1,11:52:00,16-59.9900N,119-53.1600E,196,27.68,32.9949
9183,2014/1/1,11:53:00,16-59.7700N,119-53.0900E,195,27.686,32.9975
9184,2014/1/1,11:54:00,16-59.5800N,119-53.0300E,196,27.69,32.9996
9185,2014/1/1,11:55:00,16-59.3900N,119-52.9700E,196,27.696,33.0017
9186,2014/1/1,11:56:00,16-59.1900N,119-52.9100E,195,27.702,33.0053
9187,2014/1/1,11:57:00,16-59.0000N,119-52.8500E,195,27.71,33.0088
9188,2014/1/1,11:58:00,16-58.8100N,119-52.7900E,196,27.715,33.0117
9189,2014/1/1,11:59:00,16-58.6400N,119-52.7500E,195,27.72,33.0143
9190,2014/1/1,12:00:00,16-58.4600N,119-52.6900E,196,27.718,33.0163
9191,2014/1/1,12:01:00,16-58.2600N,119-52.6300E,196,27.722,33.0178
9192,2014/1/1,12:02:00,16-58.0500N,119-52.5700E,195,27.73,33.0185
9193,2014/1/1,12:03:00,16-57.8500N,119-52.5100E,196,27.737,33.0193
9194,2014/1/1,12:04:00,16-57.6700N,119-52.4400E,198,27.748,33.0218
9195,2014/1/1,12:05:00,16-57.4800N,119-52.3800E,198,27.762,33.0239
9196,2014/1/1,12:06:00,16-57.3000N,119-52.3200E,198,27.776,33.0276
9197,2014/1/1,12:07:00,16-57.1200N,119-52.2600E,198,27.788,33.0314
9198,2014/1/1,12:08:00,16-56.9300N,119-52.1900E,197,27.794,33.0349
9199,2014/1/1,12:09:00,16-56.7200N,119-52.1200E,197,27.804,33.0381
9200,2014/1/1,12:10:00,16-56.5300N,119-52.0600E,197,27.819,33.0398
9201,2014/1/1,12:11:00,16-56.3700N,119-52.0000E,199,27.836,33.0437
9202,2014/1/1,12:12:00,16-56.1800N,119-51.9400E,197,27.85,33.0479
9203,2014/1/1,12:13:00,16-55.9900N,119-51.8700E,198,27.859,33.0515
9204,2014/1/1,12:14:00,16-55.8000N,119-51.8100E,197,27.868,33.0541
9205,2014/1/1,12:15:00,16-55.6200N,119-51.7500E,196,27.874,33.0559
9206,2014/1/1,12:16:00,16-55.4300N,119-51.6900E,197,27.881,33.0568
9207,2014/1/1,12:17:00,16-55.2400N,119-51.6200E,197,27.886,33.0585
9208,2014/1/1,12:18:00,16-55.0500N,119-51.5600E,198,27.892,33.0598
9209,2014/1/1,12:19:00,16-54.8600N,119-51.5000E,197,27.897,33.0612
9210,2014/1/1,12:20:00,16-54.6700N,119-51.4300E,197,27.903,33.0614
9211,2014/1/1,12:21:00,16-54.4800N,119-51.3700E,197,27.908,33.062
9212,2014/1/1,12:22:00,16-54.2900N,119-51.3100E,198,27.914,33.0626
9213,2014/1/1,12:23:00,16-54.1000N,119-51.2400E,198,27.918,33.0636
9214,2014/1/1,12:24:00,16-53.9200N,119-51.1800E,197,27.922,33.0641
9215,2014/1/1,12:25:00,16-53.7300N,119-51.1200E,197,27.925,33.0645
9216,2014/1/1,12:26:00,16-53.5300N,119-51.0500E,197,27.927,33.0648
9217,2014/1/1,12:27:00,16-53.3500N,119-50.9900E,197,27.926,33.0655
9218,2014/1/1,12:28:00,16-53.1500N,119-50.9200E,197,27.925,33.0649
9219,2014/1/1,12:29:00,16-52.9700N,119-50.8600E,197,27.924,33.0652
9220,2014/1/1,12:30:00,16-52.7800N,119-50.8000E,198,27.93,33.0648
9221,2014/1/1,12:31:00,16-52.5900N,119-50.7300E,198,27.937,33.0649
9222,2014/1/1,12:32:00,16-52.4000N,119-50.6600E,198,27.947,33.0666
9223,2014/1/1,12:33:00,16-52.2100N,119-50.6000E,198,27.953,33.0671
9224,2014/1/1,12:34:00,16-52.0100N,119-50.5400E,198,27.959,33.0686
9225,2014/1/1,12:35:00,16-51.8200N,119-50.4700E,198,27.965,33.0693
9226,2014/1/1,12:36:00,16-51.6400N,119-50.4100E,197,27.97,33.0705
9227,2014/1/1,12:37:00,16-51.4400N,119-50.3500E,196,27.974,33.0708
9228,2014/1/1,12:38:00,16-51.2500N,119-50.2900E,196,27.977,33.0717
9229,2014/1/1,12:39:00,16-51.0600N,119-50.2300E,197,27.98,33.073
9230,2014/1/1,12:40:00,16-50.8700N,119-50.1700E,197,27.984,33.0733
9231,2014/1/1,12:41:00,16-50.6800N,119-50.1100E,197,27.989,33.0743
9232,2014/1/1,12:42:00,16-50.4900N,119-50.0500E,196,27.992,33.0739
9233,2014/1/1,12:43:00,16-50.3000N,119-49.9900E,196,27.996,33.0748
9234,2014/1/1,12:44:00,16-50.1100N,119-49.9200E,196,28,33.0749
9235,2014/1/1,12:45:00,16-49.9200N,119-49.8600E,198,28.004,33.0759
9236,2014/1/1,12:46:00,16-49.7300N,119-49.8000E,196,28.008,33.078
9237,2014/1/1,12:47:00,16-49.5400N,119-49.7400E,197,28.015,33.0795
9238,2014/1/1,12:48:00,16-49.3500N,119-49.6800E,196,28.021,33.0819
9239,2014/1/1,12:49:00,16-49.1600N,119-49.6200E,196,28.029,33.0842
9240,2014/1/1,12:50:00,16-48.9700N,119-49.5600E,197,28.038,33.0877
9241,2014/1/1,12:51:00,16-48.7800N,119-49.5000E,197,28.047,33.0912
9242,2014/1/1,12:52:00,16-48.5900N,119-49.4400E,197,28.055,33.0957
9243,2014/1/1,12:53:00,16-48.4000N,119-49.3800E,197,28.066,33.1007
9244,2014/1/1,12:54:00,16-48.2000N,119-49.3100E,196,28.076,33.1057
9245,2014/1/1,12:55:00,16-48.0300N,119-49.2600E,196,28.086,33.1098
9246,2014/1/1,12:56:00,16-47.8400N,119-49.2000E,197,28.095,33.115
9247,2014/1/1,12:57:00,16-47.6500N,119-49.1400E,197,28.105,33.1195
9248,2014/1/1,12:58:00,16-47.4600N,119-49.0800E,196,28.114,33.124
9249,2014/1/1,12:59:00,16-47.2700N,119-49.0200E,197,28.123,33.1285
9250,2014/1/1,13:00:00,16-47.0800N,119-48.9600E,195,28.131,33.1331
9251,2014/1/1,13:01:00,16-46.8900N,119-48.9000E,197,28.138,33.1367
9252,2014/1/1,13:02:00,16-46.7000N,119-48.8400E,197,28.144,33.1407
9253,2014/1/1,13:03:00,16-46.5100N,119-48.7800E,196,28.153,33.1433
9254,2014/1/1,13:04:00,16-46.3200N,119-48.7200E,196,28.163,33.1462
9255,2014/1/1,13:05:00,16-46.1300N,119-48.6600E,197,28.172,33.1488
9256,2014/1/1,13:06:00,16-45.9400N,119-48.6000E,197,28.183,33.152
9257,2014/1/1,13:07:00,16-45.7500N,119-48.5400E,197,28.194,33.1556
9258,2014/1/1,13:08:00,16-45.5600N,119-48.4800E,197,28.201,33.1603
9259,2014/1/1,13:09:00,16-45.3700N,119-48.4200E,197,28.207,33.1644
9260,2014/1/1,13:10:00,16-45.1900N,119-48.3600E,197,28.214,33.1685
9261,2014/1/1,13:11:00,16-45.0000N,119-48.3000E,196,28.221,33.171
9262,2014/1/1,13:12:00,16-44.8100N,119-48.2400E,196,28.231,33.1738
9263,2014/1/1,13:13:00,16-44.6200N,119-48.1800E,197,28.242,33.1781
9264,2014/1/1,13:14:00,16-44.4300N,119-48.1200E,197,28.255,33.1828
9265,2014/1/1,13:15:00,16-44.2400N,119-48.0600E,196,28.267,33.1877
9266,2014/1/1,13:16:00,16-44.0500N,119-48.0000E,196,28.278,33.194
9267,2014/1/1,13:17:00,16-43.8500N,119-47.9400E,196,28.288,33.199
9268,2014/1/1,13:18:00,16-43.6600N,119-47.8800E,197,28.297,33.2036
9269,2014/1/1,13:19:00,16-43.4700N,119-47.8200E,196,28.304,33.2078
9270,2014/1/1,13:20:00,16-43.2800N,119-47.7600E,196,28.311,33.2128
9271,2014/1/1,13:21:00,16-43.0900N,119-47.7100E,195,28.319,33.2173
9272,2014/1/1,13:22:00,16-42.8900N,119-47.6500E,196,28.329,33.2198
9273,2014/1/1,13:23:00,16-42.7000N,119-47.5900E,196,28.337,33.2232
9274,2014/1/1,13:24:00,16-42.5100N,119-47.5300E,197,28.344,33.2262
9275,2014/1/1,13:25:00,16-42.3100N,119-47.4700E,196,28.35,33.2284
9276,2014/1/1,13:26:00,16-42.1200N,119-47.4100E,196,28.353,33.2304
9277,2014/1/1,13:27:00,16-41.9300N,119-47.3500E,196,28.359,33.2316
9278,2014/1/1,13:28:00,16-41.7400N,119-47.2900E,197,28.366,33.233
9279,2014/1/1,13:29:00,16-41.5500N,119-47.2300E,195,28.372,33.2347
9280,2014/1/1,13:30:00,16-41.3600N,119-47.1700E,196,28.376,33.237
9281,2014/1/1,13:31:00,16-41.1600N,119-47.1200E,196,28.378,33.2389
9282,2014/1/1,13:32:00,16-40.9700N,119-47.0600E,197,28.381,33.2408
9283,2014/1/1,13:33:00,16-40.7800N,119-47.0000E,197,28.382,33.2413
9284,2014/1/1,13:34:00,16-40.5900N,119-46.9400E,196,28.385,33.2422
9285,2014/1/1,13:35:00,16-40.4000N,119-46.8800E,196,28.386,33.2424
9286,2014/1/1,13:36:00,16-40.2100N,119-46.8200E,196,28.386,33.2413
9287,2014/1/1,13:37:00,16-40.0200N,119-46.7600E,196,28.385,33.2405
9288,2014/1/1,13:38:00,16-39.8300N,119-46.7000E,197,28.382,33.2393
9289,2014/1/1,13:39:00,16-39.6400N,119-46.6300E,197,28.38,33.2381
9290,2014/1/1,13:40:00,16-39.4500N,119-46.5700E,197,28.378,33.2366
9291,2014/1/1,13:41:00,16-39.2600N,119-46.5100E,197,28.378,33.236
9292,2014/1/1,13:42:00,16-39.0700N,119-46.4500E,197,28.379,33.2353
9293,2014/1/1,13:43:00,16-38.8800N,119-46.3900E,197,28.379,33.2344
9294,2014/1/1,13:44:00,16-38.6900N,119-46.3300E,197,28.381,33.2347
9295,2014/1/1,13:45:00,16-38.5000N,119-46.2700E,196,28.383,33.2357
9296,2014/1/1,13:46:00,16-38.3200N,119-46.2000E,198,28.385,33.2361
9297,2014/1/1,13:47:00,16-38.1300N,119-46.1400E,197,28.386,33.2373
9298,2014/1/1,13:48:00,16-37.9400N,119-46.0800E,197,28.387,33.2382
9299,2014/1/1,13:49:00,16-37.7400N,119-46.0200E,198,28.388,33.239
9300,2014/1/1,13:50:00,16-37.5500N,119-45.9600E,197,28.388,33.2397
9301,2014/1/1,13:51:00,16-37.3600N,119-45.8900E,198,28.387,33.2405
9302,2014/1/1,13:52:00,16-37.1700N,119-45.8300E,197,28.387,33.2405
9303,2014/1/1,13:53:00,16-36.9800N,119-45.7700E,198,28.384,33.2413
9304,2014/1/1,13:54:00,16-36.7900N,119-45.7000E,198,28.379,33.241
9305,2014/1/1,13:55:00,16-36.6000N,119-45.6400E,197,28.375,33.2412
9306,2014/1/1,13:56:00,16-36.4100N,119-45.5800E,198,28.373,33.2411
9307,2014/1/1,13:57:00,16-36.2100N,119-45.5100E,197,28.372,33.2413
9308,2014/1/1,13:58:00,16-36.0200N,119-45.4500E,198,28.369,33.2419
9309,2014/1/1,13:59:00,16-35.8300N,119-45.3800E,198,28.367,33.2422
9310,2014/1/1,14:00:00,16-35.6300N,119-45.3200E,198,28.365,33.2431
9311,2014/1/1,14:01:00,16-35.4400N,119-45.2500E,197,28.365,33.2438
9312,2014/1/1,14:02:00,16-35.2500N,119-45.1900E,197,28.365,33.2444
9313,2014/1/1,14:03:00,16-35.0500N,119-45.1300E,197,28.365,33.2454
9314,2014/1/1,14:04:00,16-34.8600N,119-45.0700E,196,28.365,33.2461
9315,2014/1/1,14:05:00,16-34.6700N,119-45.0100E,196,28.366,33.2472
9316,2014/1/1,14:06:00,16-34.4700N,119-44.9500E,197,28.366,33.249
9317,2014/1/1,14:07:00,16-34.2800N,119-44.8800E,197,28.368,33.2501
9318,2014/1/1,14:08:00,16-34.0400N,119-44.8000E,195,28.369,33.2518
9319,2014/1/1,14:09:00,16-33.8600N,119-44.7500E,196,28.369,33.254
9320,2014/1/1,14:10:00,16-33.6700N,119-44.6900E,197,28.367,33.255
9321,2014/1/1,14:11:00,16-33.5000N,119-44.6300E,198,28.368,33.2561
9322,2014/1/1,14:12:00,16-33.3000N,119-44.5600E,197,28.367,33.2576
9323,2014/1/1,14:13:00,16-33.1100N,119-44.5000E,198,28.367,33.2592
9324,2014/1/1,14:14:00,16-32.9200N,119-44.4400E,198,28.366,33.2611
9325,2014/1/1,14:15:00,16-32.7200N,119-44.3700E,198,28.366,33.2624
9326,2014/1/1,14:16:00,16-32.5300N,119-44.3000E,198,28.366,33.2644
9327,2014/1/1,14:17:00,16-32.3400N,119-44.2400E,197,28.364,33.2656
9328,2014/1/1,14:18:00,16-32.1400N,119-44.1700E,198,28.361,33.2665
9329,2014/1/1,14:19:00,16-31.9500N,119-44.1100E,198,28.361,33.2672
9330,2014/1/1,14:20:00,16-31.7600N,119-44.0400E,198,28.364,33.2698
9331,2014/1/1,14:21:00,16-31.5600N,119-43.9700E,197,28.366,33.2711
9332,2014/1/1,14:22:00,16-31.3700N,119-43.9100E,198,28.37,33.2734
9333,2014/1/1,14:23:00,16-31.1700N,119-43.8400E,198,28.37,33.275
9334,2014/1/1,14:24:00,16-30.9700N,119-43.7700E,198,28.368,33.2777
9335,2014/1/1,14:25:00,16-30.7800N,119-43.7000E,198,28.371,33.2794
9336,2014/1/1,14:26:00,16-30.5800N,119-43.6400E,197,28.37,33.2838
9337,2014/1/1,14:27:00,16-30.3900N,119-43.5800E,196,28.364,33.2897
9338,2014/1/1,14:28:00,16-30.1900N,119-43.5200E,195,28.357,33.2897
9339,2014/1/1,14:29:00,16-30.0000N,119-43.4600E,195,28.358,33.2869
9340,2014/1/1,14:30:00,16-29.8100N,119-43.4100E,195,28.363,33.2896
9341,2014/1/1,14:31:00,16-29.6100N,119-43.3500E,196,28.356,33.2898
9342,2014/1/1,14:32:00,16-29.4200N,119-43.2900E,196,28.344,33.282
9343,2014/1/1,14:33:00,16-29.2300N,119-43.2300E,198,28.32,33.2659
9344,2014/1/1,14:34:00,16-29.0500N,119-43.1700E,195,28.296,33.248
9345,2014/1/1,14:35:00,16-28.8600N,119-43.1200E,193,28.28,33.2266
9346,2014/1/1,14:36:00,16-28.6600N,119-43.0700E,192,28.267,33.2095
9347,2014/1/1,14:37:00,16-28.4700N,119-43.0300E,193,28.257,33.1966
9348,2014/1/1,14:38:00,16-28.2800N,119-42.9800E,195,28.256,33.1861
9349,2014/1/1,14:39:00,16-28.0800N,119-42.9200E,196,28.261,33.1761
9350,2014/1/1,14:40:00,16-27.9000N,119-42.8600E,197,28.272,33.1709
9351,2014/1/1,14:41:00,16-27.7100N,119-42.7900E,197,28.282,33.1718
9352,2014/1/1,14:42:00,16-27.5200N,119-42.7300E,198,28.283,33.1764
9353,2014/1/1,14:43:00,16-27.3400N,119-42.6700E,198,28.282,33.1778
9354,2014/1/1,14:44:00,16-27.1500N,119-42.6100E,196,28.281,33.1689
9355,2014/1/1,14:45:00,16-26.9600N,119-42.5400E,198,28.278,33.1562
9356,2014/1/1,14:46:00,16-26.7800N,119-42.4700E,198,28.269,33.1436
9357,2014/1/1,14:47:00,16-26.5900N,119-42.4100E,199,28.254,33.1307
9358,2014/1/1,14:48:00,16-26.4100N,119-42.3400E,198,28.237,33.1163
9359,2014/1/1,14:49:00,16-26.2300N,119-42.2800E,198,28.222,33.0997
9360,2014/1/1,14:50:00,16-26.0500N,119-42.2100E,197,28.212,33.0846
9361,2014/1/1,14:51:00,16-25.8700N,119-42.1500E,196,28.204,33.0708
9362,2014/1/1,14:52:00,16-25.6700N,119-42.0900E,196,28.2,33.0611
9363,2014/1/1,14:53:00,16-25.4900N,119-42.0400E,196,28.2,33.0539
9364,2014/1/1,14:54:00,16-25.3000N,119-41.9800E,196,28.199,33.0496
9365,2014/1/1,14:55:00,16-25.1100N,119-41.9300E,196,28.198,33.049
9366,2014/1/1,14:56:00,16-24.9300N,119-41.8700E,196,28.195,33.0493
9367,2014/1/1,14:57:00,16-24.7400N,119-41.8100E,196,28.19,33.0493
9368,2014/1/1,14:58:00,16-24.5600N,119-41.7600E,197,28.184,33.0489
9369,2014/1/1,14:59:00,16-24.3700N,119-41.7000E,196,28.178,33.0495
9370,2014/1/1,15:00:00,16-24.1900N,119-41.6400E,197,28.174,33.0485
9371,2014/1/1,15:01:00,16-24.0100N,119-41.5800E,196,28.173,33.0482
9372,2014/1/1,15:02:00,16-23.8000N,119-41.5200E,197,28.172,33.049
9373,2014/1/1,15:03:00,16-23.6400N,119-41.4700E,197,28.169,33.0498
9374,2014/1/1,15:04:00,16-23.4500N,119-41.4100E,196,28.163,33.0489
9375,2014/1/1,15:05:00,16-23.2700N,119-41.3500E,196,28.161,33.0487
9376,2014/1/1,15:06:00,16-23.0900N,119-41.3000E,193,28.154,33.049
9377,2014/1/1,15:07:00,16-22.9000N,119-41.2500E,194,28.153,33.0492
9378,2014/1/1,15:08:00,16-22.7200N,119-41.2000E,198,28.153,33.0494
9379,2014/1/1,15:09:00,16-22.5400N,119-41.1400E,199,28.149,33.0509
9380,2014/1/1,15:10:00,16-22.3600N,119-41.0700E,200,28.148,33.0506
9381,2014/1/1,15:11:00,16-22.1900N,119-41.0000E,200,28.147,33.0528
9382,2014/1/1,15:12:00,16-22.0200N,119-40.9300E,202,28.145,33.0528
9383,2014/1/1,15:13:00,16-21.8400N,119-40.8500E,203,28.145,33.0518
9384,2014/1/1,15:14:00,16-21.6700N,119-40.7700E,203,28.142,33.0532
9385,2014/1/1,15:15:00,16-21.4900N,119-40.7000E,200,28.138,33.0536
9386,2014/1/1,15:16:00,16-21.3200N,119-40.6300E,200,28.134,33.0545
9387,2014/1/1,15:17:00,16-21.1400N,119-40.5600E,200,28.13,33.0556
9388,2014/1/1,15:18:00,16-20.9600N,119-40.4900E,201,28.128,33.0554
9389,2014/1/1,15:19:00,16-20.7900N,119-40.4200E,201,28.13,33.0542
9390,2014/1/1,15:20:00,16-20.6100N,119-40.3600E,199,28.133,33.0527
9391,2014/1/1,15:21:00,16-20.4400N,119-40.2900E,199,28.135,33.0523
9392,2014/1/1,15:22:00,16-20.2600N,119-40.2200E,200,28.14,33.0511
9393,2014/1/1,15:23:00,16-20.0800N,119-40.1500E,198,28.146,33.0496
9394,2014/1/1,15:24:00,16-19.9000N,119-40.0900E,199,28.154,33.0497
9395,2014/1/1,15:25:00,16-19.7000N,119-40.0300E,197,28.163,33.0485
9396,2014/1/1,15:26:00,16-19.5300N,119-39.9700E,195,28.172,33.0488
9397,2014/1/1,15:27:00,16-19.3400N,119-39.9200E,194,28.181,33.0491
9398,2014/1/1,15:28:00,16-19.1600N,119-39.8700E,195,28.189,33.0496
9399,2014/1/1,15:29:00,16-18.9700N,119-39.8100E,196,28.198,33.0512
9400,2014/1/1,15:30:00,16-18.7900N,119-39.7600E,195,28.208,33.0534
9401,2014/1/1,15:31:00,16-18.6000N,119-39.7100E,194,28.218,33.0565
9402,2014/1/1,15:32:00,16-18.4100N,119-39.6600E,195,28.226,33.059
9403,2014/1/1,15:33:00,16-18.2200N,119-39.6000E,194,28.235,33.0621
9404,2014/1/1,15:34:00,16-18.0400N,119-39.5500E,195,28.241,33.0638
9405,2014/1/1,15:35:00,16-17.8500N,119-39.5000E,195,28.247,33.0651
9406,2014/1/1,15:36:00,16-17.6600N,119-39.4500E,194,28.252,33.0668
9407,2014/1/1,15:37:00,16-17.4800N,119-39.4000E,194,28.255,33.0674
9408,2014/1/1,15:38:00,16-17.2900N,119-39.3500E,195,28.257,33.0682
9409,2014/1/1,15:39:00,16-17.1000N,119-39.3000E,194,28.259,33.0682
9410,2014/1/1,15:40:00,16-16.9100N,119-39.2500E,193,28.262,33.0686
9411,2014/1/1,15:41:00,16-16.7200N,119-39.2000E,194,28.266,33.069
9412,2014/1/1,15:42:00,16-16.5400N,119-39.1400E,195,28.271,33.0695
9413,2014/1/1,15:43:00,16-16.3500N,119-39.0900E,195,28.275,33.0683
9414,2014/1/1,15:44:00,16-16.1600N,119-39.0400E,194,28.278,33.068
9415,2014/1/1,15:45:00,16-15.9700N,119-38.9800E,196,28.28,33.0676
9416,2014/1/1,15:46:00,16-15.7800N,119-38.9300E,195,28.282,33.0676
9417,2014/1/1,15:47:00,16-15.5900N,119-38.8700E,197,28.285,33.0678
9418,2014/1/1,15:48:00,16-15.4100N,119-38.8100E,197,28.287,33.069
9419,2014/1/1,15:49:00,16-15.2200N,119-38.7600E,195,28.292,33.0701
9420,2014/1/1,15:50:00,16-15.0300N,119-38.7000E,197,28.294,33.0703
9421,2014/1/1,15:51:00,16-14.8400N,119-38.6400E,196,28.296,33.071
9422,2014/1/1,15:52:00,16-14.6500N,119-38.5900E,196,28.298,33.0717